SCP
0 0 0 0 0 0 0 0 0 0 0 0 0 0 0 0 0 0 0 0 0 0 0 0 0 0 0 0 0 0 0 0 0 0 0 0 0 0 0 0 0 0 0 0 0 0 0 0 0
0 0 0 0 0 0 0 0 0 0 0 0 0 0 0 0 0 0 0 0 0 0 0 0 0 0 0 0 0 0 0 0 0 0 0 0 0 0 0 0 0 0 0 0 0 0 0 0 0
0 0 0 0 0 0 0 0 0 0 0 0 0 0 0 0 0 0 0 0 0 0 0 0 0 0 0 0 0 0 0 0 0 0 0 0 0 0 0 0 0 0 0 0 0 0 0 0 0
0 0 0 0 0 0 0 0 0 0 0 0 0 0 0 0 0 0 0 0 0 0 0 0 0 0 0 0 0 0 0 0 0 0 0 0 0 0 0 0 0 0 0 0 0 0 0 0 0
0 0 0 0 0 0 0 0 0 0 0 0 0 0 0 0 0 0 0 0 0 0 0 0 0 0 0 0 0 0 0 0 0 0 0 0 0 0 0 0 0 0 0 0 0 0 0 0 0
0 0 0 0 0 0 0 0 0 0 0 0 0 0 0 0 0 0 0 0 0 0 0 0 0 0 0 0 0 0 0 0 0 0 0 0 0 0 0 0 0 0 0 0 0 0 0 0 0
0 0 0 0 0 0 0 0 0 0 0 0 0 0 0 0 0 0 0 0 0 0 0 0 0 0 0 0 0 0 0 0 0 0 0 0 0 0 0 0 0 0 0 0 0 0 0 0 0
1 0 0 0 0 0 0 0 0 0 0 0 0 0 0 0 0 0 0 0 0 0 0 0 0 0 0 0 0 0 0 0 0 0 0 0 0 0 0 0 0 0 0 0 0 0 0 0 0
0 0 0 0 0 0 0 0 0 0 0 0 0 0 0 0 0 0 0 0 0 0 0 0 0 0 0 0 0 0 0 0 0 0 0 0 0 0 0 0 0 0 0 0 0 0 0 0 0
0 0 0 0 0 0 0 0 0 0 0 0 0 0 0 0 0 0 0 0 0 0 0 0 0 0 0 0 0 0 0 0 0 0 0 0 0 0 0 0 0 0 0 0 0 0 0 0 0
0 0 0 0 0 0 0 0 0 0 0 0 0 0 0 0 0 0 0 0 0 0 0 0 0 0 0 0 0 0 0 0 0 0 0 0 0 0 0 0 0 0 0 0 0 0 0 0 0
0 0 0 0 0 0 0 0 0 0 0 0 0 0 0 0 0 0 0 0 0 0 0 0 0 0 0 0 0 0 0 0 0 0 0 -0 -0 0 0 0 0 0 0 0 0 0 0 0 0
0 0 0 0 0 0 0 0 0 0 0 0 0 0 0 0 0 0 0 0 0 0 0 0 0 0 0 0 0 0 0 0 0 0 0 -0 -0 0 0 0 0 0 0 0 0 0 0 0 0
0 0 0 0 0 0 0 0 0 0 0 0 0 0 0 0 0 0 0 0 0 0 0 0 0 0 0 0 0 0 0 0 0 0 0 -0 0 0 0 0 0 0 0 0 0 0 0 0 0
0 0 0 0 0 0 0 0 0 0 0 0 0 0 0 0 0 0 0 0 0 0 0 0 0 0 0 0 0 0 0 0 0 0 -0 -0 0 0 0 0 0 0 0 0 0 0 0 0 0
0 0 0 0 0 0 0 0 0 0 0 0 0 0 0 0 0 0 0 0 0 0 0 0 0 0 0 0 0 0 0 0 0 0 -0 -0 -0 0 0 0 0 0 0 0 0 0 0 0 0
0 0 0 0 0 0 0 0 0 0 0 0 0 0 0 0 0 0 0 0 0 0 0 0 0 0 0 0 0 0 0 0 -0 -0 -0 -0 -0 -0 0 0 0 0 0 0 0 0 0 0 0
0 0 0 0 0 0 0 0 0 0 0 0 0 0 0 0 0 0 0 0 0 0 0 0 0 0 0 0 0 0 0 0 -0 -0 -0 -0 -0 -0 0 0 0 0 0 0 0 0 0 0 0
0 0 0 0 0 0 0 0 0 0 0 0 0 0 0 0 0 0 0 0 0 0 0 0 0 0 0 0 0 0 0 0 0 -0 -0 -0 -0 0 0 0 0 0 0 0 0 0 0 0 0
0 0 0 0 0 0 0 0 0 0 0 0 0 0 0 0 0 0 0 0 0 0 0 0 0 0 0 0 0 0 0 0 0 0 -0 -0 -0 0 0 0 0 0 0 0 0 0 0 0 0
0 0 0 0 0 0 0 0 0 0 0 0 0 0 0 0 0 0 0 0 0 0 0 0 0 0 0 0 0 0 0 0 0 0 0 0 0 0 0 0 0 0 0 0 0 0 0 0 0
0 0 0 0 0 0 0 0 0 0 0 0 0 0 0 0 0 0 0 0 0 0 0 0 0 0 0 0 0 0 0 0 0 0 0 0 0 0 0 0 0 0 0 0 0 0 0 0 0
0 0 0 0 0 0 0 0 0 0 0 0 0 0 0 0 0 0 0 0 0 0 0 0 0 0 0 0 0 0 0 0 0 0 0 0 0 0 0 0 0 0 0 0 0 0 0 0 0
0 0 0 0 0 0 0 0 0 0 0 0 0 0 0 0 0 0 0 0 0 0 0 0 0 0 0 0 0 0 0 0 0 0 0 0 0 0 0 0 0 0 0 0 0 0 0 0 0
0 0 0 0 0 0 0 0 0 0 0 0 0 0 0 0 0 0 0 0 0 0 0 0 0 0 0 0 0 0 0 0 0 0 0 0 0 0 0 0 0 0 0 0 0 0 0 0 0
0 0 0 0 0 0 0 0 0 0 0 0 0 0 0 0 0 0 0 0 0 0 0 0 0 0 0 0 0 0 0 0 0 0 0 0 0 0 0 0 0 0 0 0 0 0 0 0 0
0 0 0 0 0 0 0 0 0 0 0 0 0 0 0 0 0 0 0 0 0 0 0 0 0 0 0 0 0 0 0 0 0 0 0 0 0 0 0 0 0 0 -0 -0 0 0 0 0 0
0 0 0 0 0 0 0 0 0 0 0 0 0 0 0 0 0 0 0 0 0 0 0 0 0 0 0 0 0 0 0 0 0 0 0 0 0 0 0 0 0 0 0 -0 0 0 0 0 0
0 0 0 0 0 0 0 0 0 0 0 0 0 0 0 0 0 0 0 0 0 0 0 0 0 0 0 0 0 0 0 0 0 0 0 0 0 0 0 0 0 0 0 0 0 0 0 0 0
0 0 0 0 0 0 0 0 0 0 0 0 0 0 0 0 0 0 0 0 0 0 0 0 0 0 0 0 0 0 0 0 0 0 0 0 0 0 0 0 0 0 0 0 0 0 0 0 0
Wind_Speed
7 8 6 2 2 3 1 2 4 5 6 7 8 10 13 12 9 8 3 7 13 14 12 11 11 11 11 10 10 10 10 9 9 9 8 8 8 7 7 6 6 6 6 6 6 6 6 6 6
7 6 4 2 3 1 1 2 6 7 6 4 8 12 13 12 12 9 5 8 13 13 11 11 11 11 11 10 10 10 9 9 9 8 8 8 7 7 6 6 6 5 5 5 5 5 5 5 5
7 6 3 3 3 1 2 3 5 6 4 5 8 11 10 8 10 7 7 10 13 14 13 11 11 11 11 10 10 9 9 9 8 8 8 7 7 6 6 6 6 5 5 5 5 5 5 5 5
3 3 4 4 4 1 4 4 3 4 4 5 8 10 11 9 8 10 10 10 13 14 13 11 12 11 11 10 10 9 9 8 8 7 7 7 6 6 6 5 5 5 5 5 5 5 4 4 4
2 3 4 4 2 3 5 4 4 4 4 8 11 12 10 11 12 11 9 10 11 13 13 12 12 11 10 10 9 9 8 8 7 7 6 6 5 5 5 5 5 5 5 5 5 5 5 4 4
2 3 4 3 2 4 5 5 4 4 5 7 10 11 8 10 9 9 9 8 10 11 13 12 12 12 11 10 9 8 7 7 6 5 4 4 3 3 3 3 4 4 4 4 5 5 5 5 4
2 3 5 3 2 3 5 4 3 4 5 5 7 9 9 9 8 9 9 7 7 9 11 11 10 10 10 10 8 7 5 4 2 2 2 2 3 3 2 1 2 3 4 4 4 5 5 5 5
3 3 5 2 3 3 4 3 4 4 4 4 6 8 8 9 9 9 8 8 7 7 7 8 9 9 9 7 8 7 5 4 3 2 4 5 6 6 6 3 1 2 3 4 5 5 6 6 6
4 3 3 2 3 3 3 3 4 4 5 7 9 11 12 12 11 9 7 6 5 5 5 6 6 6 7 8 9 8 7 6 5 5 7 7 4 2 4 3 4 3 3 5 5 6 7 8 8
3 2 2 2 2 2 2 3 2 4 5 7 10 11 13 10 10 9 8 7 7 5 4 5 5 4 4 3 5 3 4 4 3 1 2 2 2 2 2 2 4 5 6 7 7 9 9 7 4
4 4 2 1 1 2 2 2 2 4 4 6 10 12 11 10 9 8 7 6 6 6 4 4 4 4 4 3 2 1 0 1 1 2 2 1 2 2 2 0 2 3 5 3 3 5 4 4 2
5 4 2 1 1 2 2 2 3 4 4 5 8 12 11 9 8 7 6 7 6 6 4 4 3 4 5 4 2 1 1 2 2 3 4 3 2 2 2 2 1 2 1 1 2 2 3 3 3
6 4 4 3 1 1 1 1 2 4 6 6 9 10 10 8 8 6 6 6 6 6 5 5 3 4 5 4 1 1 3 2 2 2 2 3 2 2 2 2 1 2 2 2 2 3 3 3 3
6 6 6 4 3 2 2 2 3 5 7 8 8 8 8 7 7 7 7 7 7 6 6 5 3 3 2 2 1 3 2 2 2 3 2 2 2 2 2 3 3 3 3 2 2 3 3 3 2
6 6 6 6 5 4 3 2 4 7 8 8 8 8 8 7 7 7 7 6 7 7 7 6 4 3 4 5 4 3 2 3 3 2 3 4 3 3 3 3 3 3 3 3 3 4 3 4 3
7 7 6 7 7 5 3 1 4 7 6 6 7 7 6 7 8 7 7 6 6 6 8 7 4 4 5 4 3 3 3 3 2 2 3 6 6 5 3 3 3 4 3 3 3 2 3 3 3
8 8 8 7 8 7 5 2 4 6 6 6 6 7 7 7 7 7 7 6 5 5 7 8 6 5 5 4 2 2 3 2 2 3 4 5 6 6 4 2 2 4 3 3 4 3 3 3 3
9 9 10 9 9 8 6 5 5 6 6 5 5 6 5 7 6 7 7 6 5 5 5 8 7 5 5 2 1 2 2 2 2 3 4 3 3 4 4 3 4 4 3 3 3 4 4 2 2
9 10 9 9 10 8 6 6 6 5 4 4 5 6 5 5 7 7 6 6 5 5 4 6 7 5 4 2 1 2 2 1 2 2 3 2 3 4 3 3 3 2 3 3 4 3 5 3 2
8 8 8 9 10 7 7 8 7 6 5 4 4 4 6 7 8 7 7 6 5 5 4 5 6 6 5 2 1 2 2 1 2 0 2 1 3 4 5 4 4 3 2 3 3 3 3 3 3
8 5 7 9 9 7 7 7 7 7 7 5 5 4 4 6 8 7 7 5 5 5 5 3 5 7 6 4 2 2 2 1 1 1 1 1 1 2 3 4 4 4 3 3 3 3 3 3 3
4 5 7 10 9 7 7 6 7 8 6 6 5 5 5 5 5 5 6 5 5 5 4 4 5 6 5 5 3 2 1 0 1 0 1 0 2 1 1 2 3 3 2 3 4 4 3 3 3
3 6 7 8 7 5 7 6 6 7 6 6 6 6 5 6 5 4 4 4 3 3 3 3 4 5 5 4 4 1 0 0 0 0 1 0 1 2 1 0 2 3 2 3 3 3 3 2 2
5 6 6 5 2 3 7 6 5 5 7 8 7 7 7 6 6 5 5 5 4 4 4 4 4 4 4 3 3 3 2 2 2 2 1 1 1 1 2 1 1 2 2 2 2 2 3 2 2
7 6 3 3 2 4 6 5 5 8 9 9 8 8 7 6 6 6 6 5 4 4 3 3 4 3 3 2 2 3 2 2 2 0 1 1 1 1 1 1 0 1 2 2 2 2 2 2 2
6 3 0 1 3 4 6 7 9 10 9 9 9 9 8 7 6 6 5 4 3 3 3 3 3 3 3 3 2 1 1 1 0 0 1 1 1 1 1 1 0 1 1 2 1 2 2 2 2
4 4 2 3 4 4 6 11 10 9 9 9 9 8 7 7 6 6 5 4 4 3 3 3 3 2 3 3 2 2 1 1 1 1 2 1 1 1 1 1 2 2 1 1 1 1 2 2 2
3 2 4 3 2 4 9 11 10 12 10 9 8 8 7 6 6 6 5 5 4 4 3 3 2 1 1 1 2 1 1 1 1 2 2 2 2 1 1 2 2 2 3 3 1 1 1 2 1
8 6 4 4 4 2 4 4 10 12 11 10 9 8 7 6 6 5 4 5 5 4 3 3 2 1 1 0 0 0 1 1 2 2 2 2 3 3 3 3 2 2 2 2 2 2 1 2 3
4 4 4 3 2 1 3 5 8 11 10 10 10 8 7 6 6 5 5 5 5 4 3 3 2 2 1 1 1 1 1 1 2 3 3 3 3 3 3 2 3 3 2 2 2 2 2 3 3
Wind_Direction
273 265 265 269 265 242 338 37 71 58 60 45 46 66 67 53 54 87 125 101 108 108 109 101 95 94 92 88 84 79 75 72 70 67 64 61 59 55 49 43 39 36 33 31 29 25 22 16 12
281 280 274 248 266 292 68 41 70 69 75 72 61 67 72 67 79 97 109 102 106 106 103 98 97 94 91 87 83 79 76 71 69 66 63 59 55 51 46 39 33 31 28 25 21 19 17 10 5
268 264 266 254 271 343 87 81 79 84 73 70 78 68 59 66 83 102 120 115 108 102 99 99 98 95 91 86 82 79 75 70 67 63 59 54 49 44 41 36 32 28 21 14 10 7 4 356 352
264 268 252 253 276 22 93 103 106 90 85 76 81 76 64 61 92 118 130 122 113 109 105 105 101 97 92 87 82 78 74 70 64 59 54 48 43 38 34 31 24 19 13 4 358 355 348 339 339
263 263 259 257 268 76 81 84 81 72 59 73 83 89 82 81 102 123 126 118 112 112 114 116 112 106 100 93 86 80 73 69 61 53 46 41 37 36 33 27 19 11 6 1 355 346 335 325 318
268 256 265 269 79 69 71 71 75 78 70 80 99 102 99 110 115 119 109 108 111 114 118 122 122 118 112 104 96 86 76 68 59 50 38 26 17 14 13 14 17 8 357 350 347 338 328 314 305
259 272 270 286 80 71 76 62 65 85 71 61 97 104 115 119 120 115 110 107 107 116 126 135 140 135 130 123 117 111 101 89 73 39 344 313 298 284 273 302 20 3 346 334 327 325 319 305 292
264 290 291 318 68 58 68 86 84 83 90 76 82 104 125 134 132 121 122 123 123 124 130 139 149 147 149 146 144 145 151 166 192 231 261 268 267 254 250 230 145 329 323 315 310 305 301 291 279
275 267 289 356 61 65 66 85 89 94 88 73 71 99 128 141 137 132 134 131 129 129 135 133 135 137 151 157 156 172 181 202 221 220 242 266 270 219 219 154 168 230 267 279 284 283 282 277 268
221 250 279 3 51 76 74 86 118 114 97 96 95 106 126 143 143 148 151 148 147 148 141 132 127 131 122 96 137 178 168 179 215 151 205 271 354 351 349 142 210 237 254 264 264 268 276 267 251
218 233 268 314 18 35 60 99 105 101 103 124 131 133 141 154 156 157 152 142 140 137 126 126 126 115 107 104 93 75 109 144 145 57 356 5 16 352 4 0 217 243 247 257 271 257 262 266 257
224 233 231 263 74 19 9 63 87 101 126 131 133 140 151 166 163 161 148 135 134 123 118 102 95 107 94 78 57 193 88 56 55 47 7 34 10 339 15 318 14 331 336 349 320 286 283 294 303
224 219 217 229 202 260 290 161 120 112 133 134 134 146 160 169 163 162 146 136 130 122 123 94 65 67 93 104 264 70 86 44 74 82 351 26 10 358 358 329 6 337 351 348 325 311 319 317 311
216 219 218 220 215 224 241 221 180 138 146 149 148 156 166 169 164 160 156 156 148 145 136 127 122 103 100 115 77 68 64 120 58 73 348 6 35 358 6 358 360 356 343 336 316 314 329 322 315
216 218 220 209 212 200 223 225 191 151 159 160 160 163 168 172 171 170 164 166 153 148 135 122 116 101 76 60 36 54 63 57 47 61 1 10 30 15 34 13 0 350 339 342 340 340 342 326 323
213 217 213 199 201 194 206 197 159 158 167 163 165 164 173 174 179 172 163 159 152 142 129 129 127 107 92 77 45 26 52 49 32 47 30 15 17 16 31 26 357 341 352 354 338 347 344 332 330
203 205 201 186 193 184 182 170 163 163 174 172 170 170 178 175 177 163 162 154 146 129 133 138 127 115 98 102 128 72 55 54 39 52 50 23 4 7 28 1 343 2 1 356 340 2 348 330 326
203 200 196 176 178 186 178 167 167 177 185 170 160 169 182 174 168 157 154 140 129 125 136 123 117 118 115 112 117 99 76 38 61 59 61 29 350 6 14 348 20 11 354 352 345 352 337 312 299
221 202 193 165 164 173 169 150 151 163 167 167 160 161 166 169 149 132 131 134 138 142 144 130 139 139 126 124 107 90 80 37 77 77 79 1 360 10 9 2 360 5 355 354 350 351 338 329 340
236 202 167 145 154 158 158 137 140 143 146 128 132 148 166 156 134 137 144 148 153 152 167 163 150 138 130 126 119 123 105 71 102 86 115 41 32 19 2 12 352 358 352 359 351 359 350 335 354
229 192 163 154 149 162 138 125 128 126 111 105 105 110 112 124 133 143 143 144 150 161 183 173 137 137 140 138 99 64 72 312 103 148 112 102 84 46 12 356 351 342 5 356 346 16 4 342 333
201 174 179 168 164 168 157 136 135 124 113 109 94 84 80 89 100 116 126 141 161 168 176 161 141 138 134 134 117 121 115 18 86 66 116 186 144 104 48 359 342 337 357 3 1 22 349 349 343
195 168 180 189 185 171 161 137 137 128 125 109 99 95 95 95 95 96 105 114 113 115 112 106 108 114 118 123 134 153 199 296 64 39 101 305 145 145 134 348 318 325 349 16 5 4 350 348 352
168 183 189 209 209 197 175 137 142 146 131 117 107 97 91 95 95 87 81 84 84 85 88 91 98 102 112 133 156 175 200 217 234 229 188 269 229 178 153 162 316 332 6 6 356 349 352 358 351
208 195 184 174 160 202 180 132 124 114 112 112 109 99 89 84 90 88 84 83 83 94 101 109 121 127 140 172 210 196 210 245 249 207 189 243 280 149 136 110 337 346 349 340 356 340 341 341 346
207 215 214 186 184 169 178 128 117 111 105 103 100 97 92 86 85 90 94 96 100 106 115 128 136 147 162 187 221 230 216 240 276 154 260 243 234 183 140 138 203 266 339 342 352 327 339 352 351
205 183 220 272 223 178 139 109 123 127 123 112 103 97 92 88 86 85 82 87 93 102 111 121 139 159 171 189 204 213 242 224 275 279 273 286 265 225 131 190 216 210 195 271 336 339 350 342 349
265 253 191 225 220 178 147 152 157 152 139 126 115 106 98 92 87 86 87 86 86 89 99 110 108 116 136 182 209 187 230 236 226 286 308 312 296 250 217 243 243 219 199 195 196 295 291 313 293
202 216 233 229 229 186 151 119 145 149 142 135 123 112 104 95 89 84 82 83 85 88 84 91 98 79 62 360 290 259 215 245 239 245 254 267 278 264 224 216 243 246 221 193 180 229 254 289 297
265 259 240 260 265 181 123 105 120 133 131 128 122 115 108 101 94 89 83 80 74 77 85 77 84 90 64 3 343 300 241 235 260 245 234 253 272 286 275 223 230 247 234 210 192 220 237 249 270